C/2020 S8 ( Lemmon )

Japanese version
Home page
Updated on October 27, 2020

---------------------------------------------------------------------

* Profile

Discovery Date September 18, 2020
Magnitude 20.1 mag
Discoverer Mount Lemmon Survey

* Orbital Elements

Epoch 2021 Apr. 16.0 TT = JDT 2459320.5                                         
T 2021 Apr. 10.93431 TT                                 Rudenko                 
q   2.3638919            (2000.0)            P               Q                  
z  +0.0036848      Peri.  160.33271     -0.81634628     -0.42923014             
 +/-0.0000184      Node    24.05091     -0.56860764     +0.47991309             
e   0.9912896      Incl.  108.51860     +0.10131192     -0.76514372             
From 78 observations 2020 July 29-Oct. 21, mean residual 0".5.                  

* Magnitudes Graph

        m1 = 12.5 + 5 log d + 10.0 log r

---------------------------------------------------------------------

The orbital elements are published on M.P.E.C. 2020-U244.
The magnitudes graphs are made with Comet for Windows.

---------------------------------------------------------------------

Copyright(C) Seiichi Yoshida (comet@aerith.net). All rights reserved.